TimeCST,TemperatureF,Dew PointF,Humidity,Sea Level PressureIn,VisibilityMPH,Wind Direction,Wind SpeedMPH,Gust SpeedMPH,PrecipitationIn,Events,Conditions,WindDirDegrees,DateUTC
12:56 AM,52.0,52.0,100,30.00,10.0,SSE,9.2,-,N/A,,Mostly Cloudy,150,2013-11-16 06:56:00
1:56 AM,54.0,52.9,96,29.99,10.0,South,10.4,-,N/A,,Mostly Cloudy,170,2013-11-16 07:56:00
2:56 AM,54.0,52.9,96,29.98,10.0,South,13.8,-,N/A,,Overcast,170,2013-11-16 08:56:00
3:56 AM,50.9,50.9,100,29.97,10.0,South,15.0,-,N/A,,Clear,170,2013-11-16 09:56:00
4:56 AM,50.9,50.9,100,29.97,10.0,South,11.5,-,N/A,,Partly Cloudy,180,2013-11-16 10:56:00
5:37 AM,51.8,51.8,100,29.97,10.0,South,12.7,-,N/A,,Mostly Cloudy,180,2013-11-16 11:37:00
5:56 AM,52.0,52.0,100,29.98,10.0,South,15.0,-,N/A,,Overcast,190,2013-11-16 11:56:00
6:33 AM,53.6,53.6,100,29.98,5.0,South,18.4,24.2,N/A,,Overcast,190,2013-11-16 12:33:00
6:39 AM,53.6,53.6,100,29.98,1.8,South,16.1,-,N/A,,Overcast,180,2013-11-16 12:39:00
6:47 AM,51.8,51.8,100,29.98,2.0,South,12.7,-,N/A,,Overcast,170,2013-11-16 12:47:00
6:56 AM,52.0,52.0,100,29.98,2.5,South,12.7,-,N/A,,Overcast,180,2013-11-16 12:56:00
7:23 AM,51.8,51.8,100,29.98,1.8,South,18.4,-,N/A,,Overcast,180,2013-11-16 13:23:00
7:56 AM,52.9,52.9,100,29.98,2.5,South,18.4,-,N/A,,Overcast,180,2013-11-16 13:56:00
8:04 AM,53.6,53.6,100,29.98,3.0,South,17.3,-,N/A,,Overcast,180,2013-11-16 14:04:00
8:56 AM,54.9,54.9,100,29.97,6.0,South,13.8,-,N/A,,Overcast,180,2013-11-16 14:56:00
9:35 AM,55.4,55.4,100,29.97,2.0,South,11.5,-,N/A,,Overcast,170,2013-11-16 15:35:00
9:42 AM,55.4,55.4,100,29.97,1.5,South,13.8,-,N/A,,Overcast,180,2013-11-16 15:42:00
9:56 AM,55.9,55.9,100,29.97,1.2,North,-9999.0,-,N/A,,Overcast,0,2013-11-16 15:56:00
10:06 AM,55.4,55.4,100,29.97,2.0,South,9.2,-,N/A,,Overcast,180,2013-11-16 16:06:00
10:18 AM,57.2,57.2,100,29.97,4.0,North,-9999.0,-,N/A,,Overcast,0,2013-11-16 16:18:00
10:56 AM,57.9,57.9,100,29.96,5.0,South,11.5,16.1,N/A,,Overcast,190,2013-11-16 16:56:00
11:40 AM,60.8,59.0,94,29.94,10.0,North,-9999.0,-,N/A,,Unknown,0,2013-11-16 17:40:00
11:56 AM,61.0,59.0,93,29.93,10.0,North,-9999.0,-,N/A,,Unknown,0,2013-11-16 17:56:00
12:11 PM,62.6,59.0,88,29.93,10.0,North,-9999.0,-,N/A,,Overcast,0,2013-11-16 18:11:00
12:28 PM,62.6,59.0,88,29.90,10.0,North,-9999.0,-,N/A,,Overcast,0,2013-11-16 18:28:00
12:56 PM,63.9,59.0,84,29.89,10.0,North,-9999.0,-,N/A,,Overcast,0,2013-11-16 18:56:00
1:56 PM,63.9,59.9,87,29.87,10.0,SSW,11.5,-,N/A,,Overcast,200,2013-11-16 19:56:00
2:56 PM,64.9,61.0,87,29.86,10.0,North,-9999.0,-,N/A,,Overcast,0,2013-11-16 20:56:00
3:18 PM,64.4,60.8,88,29.85,10.0,North,-9999.0,-,N/A,,Overcast,0,2013-11-16 21:18:00
3:56 PM,63.0,61.0,93,29.85,10.0,North,-9999.0,-,N/A,,Mostly Cloudy,0,2013-11-16 21:56:00
4:56 PM,63.9,61.9,93,29.83,10.0,SSE,13.8,-,N/A,,Overcast,160,2013-11-16 22:56:00
5:12 PM,64.4,62.6,94,29.84,10.0,North,-9999.0,-,N/A,,Overcast,0,2013-11-16 23:12:00
5:56 PM,64.9,63.0,93,29.83,10.0,SSE,13.8,-,N/A,,Overcast,160,2013-11-16 23:56:00
6:56 PM,64.9,63.9,96,29.82,10.0,South,16.1,-,N/A,,Overcast,180,2013-11-17 00:56:00
7:05 PM,64.4,64.4,100,29.82,10.0,South,17.3,-,N/A,,Overcast,180,2013-11-17 01:05:00
7:16 PM,64.4,64.4,100,29.82,10.0,South,20.7,-,N/A,,Mostly Cloudy,180,2013-11-17 01:16:00
7:30 PM,66.2,64.4,94,29.82,10.0,South,19.6,26.5,0.00,Rain,Light Rain,180,2013-11-17 01:30:00
7:56 PM,64.9,64.9,100,29.81,10.0,South,16.1,-,0.00,,Mostly Cloudy,180,2013-11-17 01:56:00
8:24 PM,64.4,64.4,100,29.81,10.0,South,17.3,-,0.00,,Mostly Cloudy,170,2013-11-17 02:24:00
8:36 PM,66.2,66.2,100,29.80,10.0,South,19.6,-,0.00,,Mostly Cloudy,170,2013-11-17 02:36:00
8:56 PM,66.9,65.8,96,29.80,10.0,South,18.4,-,0.00,,Overcast,170,2013-11-17 02:56:00
9:56 PM,66.9,64.9,93,29.80,10.0,South,16.1,24.2,N/A,,Overcast,170,2013-11-17 03:56:00
10:56 PM,66.9,63.9,90,29.77,10.0,South,28.8,34.5,0.00,,Overcast,180,2013-11-17 04:56:00
11:32 PM,66.2,64.4,94,29.77,10.0,South,26.5,32.2,0.00,,Overcast,180,2013-11-17 05:32:00
11:56 PM,66.9,64.9,93,29.75,10.0,South,28.8,36.8,0.00,,Overcast,180,2013-11-17 05:56:00